[[{"header":{"parameterUnit":"m.s-1","parameterCategory":1,"la1":30.2991,"la2":30.254,"lo1":-89.0895,"lo2":-89.0444,"dy":0.0017,"dx":0.0017,"nx":28,"ny":28,"refTime":"2024-06-09T21:00:00:Z","depth":0,"parameterNumber":2,"parameterNumberName":"U-component_of_WINDS"},"data":[0,0,0,0,0,0,0,0,0,0,0,0,0,0,0,0,0,0,0,0,0,0,0,0,0,0,0,0,0,0,0,0,0,0,0,0,0,0,0,0,0,0,0,0,0,0,0,0,0,0,0,0,0,0,0,0,0,0,1.9753,1.9754,0,1.989,1.9892,1.9893,1.9901,1.9899,1.9898,1.9896,2.0037,2.0042,2.0047,0,0,0,0,0,0,0,0,0,0,0,0,0,1.9496,1.9501,1.9753,1.9755,1.9756,1.989,1.9892,1.9893,1.9901,1.9899,1.9897,1.9896,2.0035,2.0041,2.0047,0,0,0,0,0,0,0,0,0,0,0,0,0,1.9618,1.9502,1.9753,1.9776,1.978,1.9889,1.9892,1.9894,1.9902,1.9899,1.9897,1.9895,2.0033,2.0041,2.0048,2.0144,0,0,2.0072,2.0076,0,0,0,0,0,0,0,0,1.9611,1.9627,1.9771,1.9775,1.9779,1.9876,1.9853,1.9978,1.9902,1.9855,1.9896,1.9893,1.9985,1.9997,2.0028,2.015,2.0156,2.0073,2.0078,2.0081,2.0083,0,0,0,0,0,0,0,1.9603,1.9621,1.9807,1.9773,1.9778,1.9779,1.9794,1.9876,1.9932,1.9859,1.986,1.9876,1.9987,2.002,2.0031,2.0158,2.0073,2.008,2.0084,2.0087,2.0364,2.0366,0,0,0,0,0,0,1.959,1.9614,1.9803,1.9811,1.9687,1.9786,1.9802,1.9847,1.9931,1.9941,1.9878,1.9876,2.0008,2.0022,2.0036,2.0152,2.0081,2.0088,2.0093,2.0361,2.0364,2.0367,0,0,0,0,0,0,1.9584,1.9606,1.9797,1.9713,1.9737,1.9793,1.9843,1.9851,1.9884,1.9945,1.9955,1.9902,2.0007,2.0025,2.0116,2.0157,2.0092,2.0099,2.0358,2.0362,2.0366,2.0385,0,0,0,0,0,0,1.9577,1.9604,1.9642,1.9714,1.9742,1.9876,1.9846,1.9855,1.9898,1.9896,1.997,1.998,2.0006,2.0105,2.0124,2.0166,2.0105,2.0355,2.036,2.0365,2.0381,2.0389,2.0396,0,0,0,0,0,1.9568,1.9642,1.9644,1.9666,1.979,1.9878,1.9894,1.9923,1.9901,1.9939,1.9977,1.9978,2.0149,2.0114,2.0136,2.0181,2.0352,2.0358,2.0364,2.0377,2.0387,2.0396,0,0,0,0,0,0,1.9574,1.9652,1.9655,1.9755,1.981,1.9879,1.9928,1.9932,1.9995,1.9991,2.0023,2.004,2.013,2.0165,2.0124,2.0277,2.0248,2.0259,2.0251,2.0261,2.0268,2.0258,2.0111,0,0,0,0,0,1.9587,1.9652,1.9717,1.9799,1.9826,1.9872,1.9912,1.9929,1.9987,2.001,2.0056,2.0112,2.0178,2.0222,2.0286,2.0386,2.0401,2.0428,2.0435,2.0441,2.045,2.0503,2.0515,2.0387,2.0387,2.0387,0,0,1.9615,1.9665,1.9705,1.9802,1.9846,1.9912,1.9892,1.9963,2.0013,2.0021,2.011,2.0145,2.021,2.0305,2.035,2.0337,2.0488,2.0449,2.0453,2.0459,2.051,2.0522,2.0533,2.0391,2.039,2.039,0,0,1.9699,1.9744,1.9817,1.9861,1.9929,1.9958,1.9975,2.0044,2.0068,2.0157,2.0164,2.0223,2.0337,2.0382,2.042,2.0519,2.0521,2.0539,2.0579,2.063,2.064,2.0649,2.0683,2.0695,2.0548,2.0548,2.0548,0,1.9725,1.9825,1.9853,1.9925,1.9966,1.9976,2.0049,2.0091,2.0176,2.0204,2.0189,2.0331,2.0375,2.048,2.0504,2.0535,2.0555,2.0531,2.0637,2.0646,2.0655,2.0688,2.07,2.0549,2.0549,2.0549,2.0549,0,1.9853,1.9922,1.9973,2.0054,2.0101,2.0173,2.0211,2.0255,2.0268,2.0298,2.0388,2.0442,2.0516,2.0543,2.0556,2.0649,2.0639,2.063,2.0602,2.0668,2.0699,2.0712,2.0552,2.0551,2.0551,2.055,0,0,1.9946,2.004,2.0058,2.0094,2.0168,2.0222,2.0293,2.0366,2.0403,2.046,2.052,2.0616,2.0607,2.065,2.0668,2.0713,2.0786,2.0698,2.07,2.0712,2.089,2.0896,2.091,2.0788,2.079,2.0792,2.0885,0,2.0038,2.0165,2.0191,2.0301,2.0365,2.0374,2.0436,2.0487,2.0518,2.0575,2.0609,2.0675,2.0659,2.0685,2.073,2.0768,2.0822,2.0761,2.0843,2.0846,2.0826,2.0927,2.0934,2.1019,2.0897,2.0899,2.0901,0,2.0162,2.0222,2.0337,2.0401,2.0429,2.0484,2.0551,2.0607,2.0665,2.0683,2.073,2.0743,2.0816,2.0784,2.0885,2.0843,2.0878,2.0901,2.0905,2.0913,2.0877,2.0937,2.1047,2.1059,2.092,2.0919,2.0917,0,2.0217,2.0326,2.0409,2.044,2.0516,2.0554,2.0588,2.0644,2.0685,2.0744,2.077,2.0837,2.0874,2.0924,2.0954,2.0929,2.1052,2.1023,2.1069,2.1068,2.1095,2.1093,2.121,2.1118,2.1118,2.1118,2.1118,0,2.0316,2.0386,2.0434,2.0485,2.0564,2.0593,2.0669,2.0703,2.0752,2.0808,2.0821,2.0874,2.091,2.0968,2.0992,2.1071,2.1088,2.1104,2.1109,2.1103,2.11,2.1126,2.112,2.1121,2.112,2.112,2.1119,0,2.0391,2.0426,2.0517,2.0581,2.0599,2.0653,2.0708,2.0758,2.0787,2.0859,2.0877,2.0924,2.0992,2.1027,2.1113,2.1129,2.1217,2.1219,2.1197,2.1199,2.1243,2.1238,2.138,2.14,2.1295,2.1296,2.1297,0,2.0451,2.0505,2.0575,2.0614,2.0648,2.0711,2.0752,2.0782,2.0825,2.0894,2.0934,2.1003,2.106,2.1169,2.121,2.1275,2.1278,2.1324,2.1288,2.1279,2.1278,2.1274,2.1279,2.133,2.1331,2.1332,2.1332,0,2.0555,2.0569,2.0629,2.0694,2.0743,2.0796,2.0848,2.0879,2.0917,2.0964,2.1034,2.1078,2.1164,2.1232,2.13,2.1334,2.1339,2.1343,2.1357,2.135,2.1335,2.1343,2.1214,2.134,2.1339,2.1339,2.1338,2.1338,2.0624,2.0672,2.0728,2.0793,2.0835,2.0883,2.0932,2.0967,2.1025,2.1098,2.1112,2.1185,2.124,2.1331,2.1367,2.1424,2.1415,2.1435,2.144,2.1444,2.1446,2.1326,2.1437,2.1437,2.1437,2.1437,2.1437,0,2.0728,2.0763,2.0823,2.0895,2.0946,2.0946,2.1003,2.1045,2.111,2.116,2.1215,2.1294,2.1359,2.1405,2.1471,2.1508,2.1512,2.1524,2.1522,2.1529,2.1451,2.1432,2.152,2.152,2.152,2.152,2.152,2.152,2.0787,2.0867,2.0888,2.0988,2.1023,2.1095,2.1127,2.1171,2.1211,2.1299,2.1353,2.1382,2.143,2.1499,2.1558,2.157,2.1593,2.1606,2.1617,2.1544,2.1535,2.1526,2.1509,2.1611,2.1611,2.169,2.169,2.1691]},{"header":{"parameterUnit":"m.s-1","parameterCategory":1,"la1":30.2991,"la2":30.254,"lo1":-89.0895,"lo2":-89.0444,"dy":0.0017,"dx":0.0017,"nx":28,"ny":28,"refTime":"2024-06-09T21:00:00:Z","depth":0,"parameterNumber":3,"parameterNumberName":"V-component_of_WINDS"},"data":[0,0,0,0,0,0,0,0,0,0,0,0,0,0,0,0,0,0,0,0,0,0,0,0,0,0,0,0,0,0,0,0,0,0,0,0,0,0,0,0,0,0,0,0,0,0,0,0,0,0,0,0,0,0,0,0,0,0,4.7204,4.7205,0,4.7274,4.7275,4.7276,4.7216,4.7213,4.7211,4.7208,4.7275,4.7279,4.7283,0,0,0,0,0,0,0,0,0,0,0,0,0,4.7009,4.7013,4.7204,4.7205,4.7206,4.7274,4.7275,4.7276,4.7216,4.7213,4.721,4.7207,4.7273,4.7278,4.7283,0,0,0,0,0,0,0,0,0,0,0,0,0,4.7088,4.7014,4.7204,4.7184,4.7183,4.7274,4.7275,4.7276,4.7217,4.7213,4.7209,4.7206,4.7272,4.7278,4.7284,4.7396,0,0,4.7303,4.7305,0,0,0,0,0,0,0,0,4.7084,4.7095,4.7186,4.7185,4.7184,4.7232,4.7231,4.7316,4.7218,4.7204,4.7208,4.7204,4.7263,4.727,4.7291,4.7399,4.7402,4.7303,4.7307,4.7309,4.7311,0,0,0,0,0,0,0,4.7078,4.7092,4.7231,4.7187,4.7186,4.7169,4.7176,4.7247,4.7253,4.7205,4.72,4.721,4.7262,4.7285,4.7292,4.7403,4.7303,4.7308,4.7312,4.7315,4.7604,4.7608,0,0,0,0,0,0,4.7076,4.7088,4.7229,4.7234,4.7124,4.7176,4.7184,4.7221,4.7252,4.7254,4.7213,4.7207,4.7277,4.7285,4.7294,4.7426,4.7309,4.7315,4.7319,4.76,4.7605,4.7609,0,0,0,0,0,0,4.7072,4.7089,4.7226,4.716,4.7176,4.7183,4.7225,4.7224,4.7247,4.7259,4.7259,4.7236,4.7274,4.7286,4.7371,4.7428,4.7318,4.7323,4.7596,4.7602,4.7607,4.7693,0,0,0,0,0,0,4.7067,4.7088,4.7133,4.7161,4.718,4.7305,4.7229,4.7228,4.7259,4.7251,4.7281,4.7282,4.7272,4.7362,4.7377,4.7434,4.7328,4.759,4.7598,4.7605,4.7685,4.7701,4.7715,0,0,0,0,0,4.706,4.7153,4.7135,4.7153,4.7236,4.7308,4.7318,4.7307,4.7264,4.7307,4.7314,4.7281,4.742,4.7372,4.7388,4.7448,4.7587,4.7596,4.7605,4.7678,4.7698,4.7714,0,0,0,0,0,0,4.713,4.7157,4.7137,4.7243,4.7274,4.7298,4.7353,4.7328,4.7371,4.7362,4.7344,4.7351,4.7441,4.7453,4.7399,4.7557,4.7496,4.7509,4.7546,4.7565,4.7579,4.7574,4.7333,0,0,0,0,0,4.7158,4.7216,4.7236,4.7327,4.7344,4.7346,4.7376,4.7365,4.7395,4.7408,4.7421,4.745,4.75,4.7533,4.758,4.7686,4.769,4.7735,4.775,4.7762,4.7773,4.7828,4.7848,4.7639,4.7639,4.7639,0,0,4.7215,4.7237,4.7275,4.7341,4.7364,4.7422,4.7357,4.7422,4.7464,4.7417,4.7499,4.7509,4.754,4.7636,4.7679,4.7649,4.7832,4.7774,4.7784,4.7788,4.784,4.7859,4.7877,4.7645,4.7644,4.7643,0,0,4.7351,4.7374,4.7452,4.7476,4.7512,4.7512,4.7531,4.7558,4.7564,4.7646,4.7611,4.766,4.7747,4.777,4.7793,4.7935,4.7905,4.795,4.8028,4.8082,4.8098,4.8113,4.8162,4.818,4.7961,4.7962,4.7962,0,4.7418,4.7507,4.7495,4.7562,4.7591,4.7552,4.7629,4.7652,4.7701,4.772,4.7686,4.7793,4.7811,4.7911,4.7946,4.7967,4.7985,4.7947,4.8097,4.8112,4.8125,4.8171,4.819,4.7967,4.7966,4.7966,4.7965,0,4.7586,4.7648,4.7706,4.7755,4.7791,4.7863,4.7859,4.7896,4.7881,4.7884,4.7966,4.7987,4.8036,4.8059,4.8045,4.8157,4.8136,4.8101,4.8038,4.815,4.8194,4.8211,4.7974,4.7972,4.7971,4.797,0,0,4.7768,4.7809,4.783,4.7851,4.7887,4.7933,4.8002,4.8052,4.8082,4.8116,4.8172,4.8246,4.8212,4.8238,4.8226,4.8273,4.8382,4.8231,4.8231,4.8257,4.8504,4.8531,4.8552,4.8363,4.8366,4.8369,4.8501,0,4.7903,4.8026,4.8016,4.813,4.8185,4.8149,4.8208,4.8235,4.8239,4.8285,4.8289,4.8341,4.8294,4.8309,4.8354,4.836,4.8431,4.835,4.8412,4.8415,4.8405,4.8575,4.8603,4.8727,4.8518,4.8521,4.8523,0,4.8078,4.812,4.824,4.8265,4.8288,4.8342,4.8386,4.8431,4.8459,4.8459,4.8488,4.8467,4.8533,4.8471,4.8561,4.8505,4.853,4.8536,4.8541,4.8545,4.8475,4.8582,4.8766,4.8784,4.855,4.8548,4.8546,0,4.8197,4.8282,4.8365,4.8384,4.8416,4.8455,4.8469,4.8495,4.8524,4.8562,4.858,4.8625,4.8648,4.8682,4.8672,4.8628,4.8764,4.8701,4.8763,4.8764,4.8793,4.8791,4.8982,4.8811,4.8811,4.881,4.881,0,4.8348,4.8423,4.8418,4.8469,4.8551,4.8537,4.8618,4.8627,4.865,4.8699,4.867,4.8717,4.8702,4.8747,4.874,4.8814,4.8826,4.8825,4.8822,4.8828,4.8828,4.8843,4.8833,4.8815,4.8814,4.8813,4.8812,0,4.8495,4.8495,4.8582,4.8606,4.8613,4.8672,4.869,4.8737,4.8739,4.8802,4.8816,4.8818,4.887,4.8864,4.8922,4.8916,4.9008,4.8996,4.9,4.8996,4.9059,4.9052,4.9265,4.9292,4.9105,4.9107,4.9108,0,4.8591,4.8648,4.8677,4.871,4.8727,4.878,4.881,4.8798,4.8831,4.8866,4.8908,4.8957,4.8996,4.9081,4.9086,4.9129,4.9116,4.9188,4.9122,4.9125,4.9115,4.9112,4.9116,4.92,4.9203,4.9204,4.9206,0,4.8762,4.8759,4.8805,4.8851,4.8889,4.8924,4.8955,4.8983,4.8974,4.9011,4.9065,4.9095,4.9154,4.9203,4.9243,4.9256,4.9229,4.9226,4.9243,4.9248,4.9248,4.9247,4.9033,4.9221,4.922,4.9219,4.9218,4.9217,4.8885,4.8933,4.8961,4.9013,4.9035,4.9066,4.911,4.9117,4.9162,4.9211,4.92,4.926,4.9284,4.9337,4.9353,4.9398,4.9371,4.9396,4.9402,4.9408,4.9414,4.9242,4.9405,4.9405,4.9404,4.9404,4.9404,0,4.9052,4.9069,4.9117,4.9162,4.9202,4.9175,4.9208,4.9243,4.9297,4.9323,4.9362,4.9422,4.9469,4.9477,4.9521,4.9555,4.9544,4.9567,4.9564,4.9566,4.9436,4.9417,4.9575,4.9575,4.9575,4.9575,4.9575,4.9575,4.9144,4.9224,4.9224,4.9313,4.9327,4.9387,4.9408,4.9434,4.9455,4.9524,4.9564,4.9569,4.9588,4.9632,4.9673,4.9674,4.9691,4.9719,4.9715,4.9593,4.9576,4.9559,4.9541,4.9723,4.9723,4.9841,4.9842,4.9843]}]]